Location: ?
(35.4064°N, 139.3593°E)
Time: 04:45:12
(UTC+00:00)

Hubble Space Telescope - Visible Passes

Search period start: 09 December 2025 00:00
Search period end: 19 December 2025 00:00
Orbit: 480 x 483 km, 28.5° (Epoch: 08 December)

Date Brightness Start Highest point End Pass type
(mag) Time Alt. Az. Time Alt. Az. Time Alt. Az.
09 Dec 3.2 08:09:24 10° SSE 08:09:55 10° SSE 08:10:27 10° SSE visible
09 Dec 2.9 09:46:11 10° SW 09:47:41 18° SSW 09:47:41 18° SSW visible
10 Dec 2.2 09:17:01 10° SW 09:20:04 23° S 09:20:12 23° SSE visible
11 Dec 2.3 08:47:51 10° SW 08:50:55 23° S 08:52:42 17° SE visible
12 Dec 2.4 08:18:39 10° SW 08:21:44 23° S 08:24:48 10° ESE visible
12 Dec 3.1 09:57:55 10° WSW 09:59:22 19° SW 09:59:22 19° SW visible
13 Dec 2.1 09:28:43 10° WSW 09:31:53 27° S 09:31:53 27° S visible
14 Dec 2.2 08:59:30 10° WSW 09:02:46 27° S 09:04:25 20° SE visible
15 Dec 2.2 08:30:16 10° WSW 08:33:32 27° S 08:36:48 10° SE visible
15 Dec 3.6 10:10:27 10° WSW 10:11:10 13° SW 10:11:10 13° SW visible
16 Dec 2.3 08:01:01 10° WSW 08:04:16 27° S 08:07:32 10° SE visible
16 Dec 2.9 09:41:13 10° WSW 09:43:40 16° SSW 09:43:50 16° SSW visible
17 Dec 3.1 09:11:57 10° WSW 09:14:23 16° SSW 09:16:35 11° SSE visible
18 Dec 3.2 08:42:41 10° SW 08:45:05 16° SSW 08:47:30 10° SSE visible
